| time (UTC) | temp F | wind direction | speed MPH | gust MPH | rain 1hr in | rain 24hr in | rain mn in | humidity % | barometer mb |
| 20260509213055 | 86 | 309 | 2.0 | 6.0 | 0.00 | 0.00 | 0.00 | 84 | 1007.1 |
| 20260509211519 | 85 | 263 | 2.0 | 10.0 | 0.00 | 0.00 | 0.00 | 85 | 1007.2 |
| 20260509210004 | 85 | 325 | 1.0 | 4.0 | 0.00 | 0.00 | 0.00 | 85 | 1007.3 |
| 20260509204515 | 84 | 289 | 1.0 | 5.0 | 0.00 | 0.00 | 0.00 | 86 | 1007.7 |
| 20260509203022 | 84 | 241 | 1.0 | 6.0 | 0.00 | 0.00 | 0.00 | 87 | 1008.0 |
| 20260509201631 | 84 | 284 | 1.0 | 5.0 | 0.00 | 0.00 | 0.00 | 87 | 1008.2 |
| 20260509200052 | 85 | 241 | 3.0 | 11.0 | 0.00 | 0.00 | 0.00 | 88 | 1008.2 |
| 20260509194503 | 85 | 199 | 4.0 | 10.0 | 0.00 | 0.00 | 0.00 | 89 | 1008.3 |
| 20260509193042 | 84 | 342 | 4.0 | 9.0 | 0.00 | 0.00 | 0.00 | 90 | 1008.4 |
| 20260509191506 | 84 | 246 | 3.0 | 8.0 | 0.00 | 0.00 | 0.00 | 90 | 1008.6 |
| 20260509190027 | 82 | 318 | 3.0 | 6.0 | 0.00 | 0.00 | 0.00 | 91 | 1008.9 |
| 20260509184519 | 81 | 286 | 2.0 | 5.0 | 0.00 | 0.00 | 0.00 | 91 | 1009.1 |
| 20260509183002 | 81 | 225 | 1.0 | 5.0 | 0.00 | 0.00 | 0.00 | 91 | 1009.2 |
| 20260509181543 | 82 | 221 | 3.0 | 9.0 | 0.00 | 0.00 | 0.00 | 91 | 1009.3 |
| 20260509180005 | 81 | 236 | 2.0 | 4.0 | 0.00 | 0.00 | 0.00 | 91 | 1009.6 |
| 20260509174609 | 81 | 224 | 1.0 | 8.0 | 0.00 | 0.00 | 0.00 | 92 | 1009.8 |
| 20260509173043 | 80 | 231 | 3.0 | 8.0 | 0.00 | 0.00 | 0.00 | 92 | 1009.8 |
| 20260509171509 | 80 | 194 | 4.0 | 7.0 | 0.00 | 0.00 | 0.00 | 92 | 1009.8 |
| 20260509170054 | 79 | 248 | 2.0 | 7.0 | 0.00 | 0.00 | 0.00 | 92 | 1010.0 |
| 20260509164600 | 78 | 241 | 3.0 | 9.0 | 0.00 | 0.00 | 0.00 | 92 | 1010.0 |
| 20260509163035 | 76 | 238 | 1.0 | 5.0 | 0.00 | 0.00 | 0.00 | 92 | 1010.1 |
| 20260509161522 | 75 | 286 | 2.0 | 5.0 | 0.00 | 0.00 | 0.00 | 92 | 1010.4 |
| 20260509160009 | 75 | 188 | 0.0 | 3.0 | 0.00 | 0.00 | 0.00 | 92 | 1010.3 |
| 20260509154527 | 74 | 186 | 0.0 | 2.0 | 0.00 | 0.00 | 0.00 | 91 | 1010.5 |
| 20260509153018 | 74 | 186 | 0.0 | 3.0 | 0.00 | 0.00 | 0.00 | 91 | 1010.7 |
| 20260509151602 | 74 | 171 | 0.0 | 5.0 | 0.00 | 0.00 | 0.00 | 91 | 1010.5 |
| 20260509150030 | 74 | 215 | 1.0 | 6.0 | 0.00 | 0.00 | 0.00 | 91 | 1010.3 |
| 20260509144511 | 74 | 216 | 2.0 | 7.0 | 0.00 | 0.00 | 0.00 | 91 | 1010.0 |
| 20260509143053 | 74 | 176 | 2.0 | 7.0 | 0.00 | 0.00 | 0.00 | 91 | 1009.4 |
| 20260509141519 | 73 | 156 | 1.0 | 5.0 | 0.00 | 0.00 | 0.00 | 91 | 1009.3 |
| 20260509140019 | 73 | 224 | 2.0 | 8.0 | 0.00 | 0.00 | 0.00 | 91 | 1009.5 |
| 20260509134505 | 73 | 196 | 1.0 | 8.0 | 0.00 | 0.00 | 0.00 | 91 | 1009.4 |
| 20260509034535 | 73 | 130 | 1.0 | 3.0 | 0.00 | 0.38 | 0.38 | 87 | 1009.1 |
| 20260509033024 | 73 | 98 | 1.0 | 8.0 | 0.00 | 0.38 | 0.38 | 87 | 1008.7 |
| 20260509031548 | 73 | 138 | 3.0 | 9.0 | 0.00 | 0.38 | 0.38 | 87 | 1008.7 |
| 20260509030036 | 73 | 126 | 4.0 | 9.0 | 0.00 | 0.38 | 0.38 | 87 | 1008.5 |
| 20260509024513 | 74 | 134 | 3.0 | 8.0 | 0.00 | 0.38 | 0.38 | 87 | 1008.3 |
| 20260509023001 | 74 | 151 | 1.0 | 4.0 | 0.00 | 0.38 | 0.38 | 87 | 1008.5 |
| 20260509021539 | 74 | 144 | 0.0 | 3.0 | 0.00 | 0.38 | 0.38 | 86 | 1008.4 |
| 20260509014528 | 75 | 166 | 2.0 | 8.0 | 0.00 | 0.38 | 0.38 | 87 | 1008.3 |
| 20260509013016 | 75 | 147 | 4.0 | 8.0 | 0.00 | 0.38 | 0.38 | 86 | 1008.2 |
| 20260509011541 | 75 | 126 | 2.0 | 8.0 | 0.00 | 0.38 | 0.38 | 87 | 1008.2 |
| 20260509004533 | 76 | 126 | 5.0 | 8.0 | 0.00 | 0.38 | 0.38 | 87 | 1008.1 |
| 20260509003011 | 76 | 106 | 3.0 | 6.0 | 0.00 | 0.38 | 0.38 | 87 | 1008.1 |
| 20260509001548 | 76 | 110 | 4.0 | 9.0 | 0.00 | 0.38 | 0.38 | 87 | 1008.2 |
| 20260509000042 | 76 | 115 | 3.0 | 8.0 | 0.00 | 0.38 | 0.38 | 87 | 1008.2 |
| 20260508234532 | 77 | 96 | 2.0 | 9.0 | 0.00 | 0.38 | 0.38 | 87 | 1008.2 |
| 20260508233036 | 77 | 134 | 3.0 | 9.0 | 0.00 | 0.38 | 0.38 | 87 | 1008.1 |
| 20260508231607 | 77 | 63 | 7.0 | 10.0 | 0.00 | 0.38 | 0.38 | 87 | 1008.1 |
| 20260508230015 | 78 | 110 | 5.0 | 11.0 | 0.00 | 0.38 | 0.38 | 87 | 1008.4 |
| 20260508224512 | 77 | 67 | 3.0 | 5.0 | 0.00 | 0.38 | 0.38 | 87 | 1008.4 |
| 20260508223105 | 77 | 101 | 2.0 | 7.0 | 0.00 | 0.38 | 0.38 | 88 | 1008.4 |
| 20260508221535 | 77 | 91 | 1.0 | 4.0 | 0.00 | 0.38 | 0.38 | 88 | 1008.5 |
| 20260508220055 | 77 | 106 | 0.0 | 3.0 | 0.00 | 0.38 | 0.38 | 88 | 1008.7 |
| 20260508214514 | 77 | 96 | 3.0 | 8.0 | 0.00 | 0.38 | 0.38 | 88 | 1008.6 |